Back to catalog

USA 485

AliveMilitaryVLEO
NORAD 62756·PAYLOAD·🇺🇸 United States

Launched Jan 21, 2025 from Cape Canaveral Space Force Station

Loading…

Next Passes (next 24 hours)

TLE

FreshSource: Space-Track

Epoch: Sep 14, 2026, 13:08 UTC

1 62756U 25014X   26257.54737820  .00198233  00000-0  11219-2 0  9998
2 62756  42.9998 287.5930 0001414 283.4980  76.5732 15.77731379 94875

Track USA 485 in real time with AllMySat

Download on the App Store